Find Starlink 30316

NORAD ID: 57673 Int'l Des: 2023-124 Owner: SPXS Country: US Constellation: starlink operational
LEOCIRCULAR

リアルタイム位置

3D地球を読み込み中...

Starlink 30316について

説明を読み込み中...

次回通過

Passes for default location (London). Set your location on the main map for personalized predictions.

高度履歴

Loading altitude history...

軌道要素

1 57673U 23124L 26125.77685396 -.00000114 00000-0 82806-5 0 9993
2 57673 53.1613 301.9124 0001090 82.1217 277.9907 15.30197054152307
Epoch: May 5, 2026 • Age: 16 hours

現在のステータス

高度 476.6 km
速度 7.63 km/s
衛星直下点 31.09°N, 56.17°W
打ち上げ日 Aug 22, 2023
運用期間 2.7 years
タイプ internet

技術仕様

分類 Payload
質量 730.00 kg
乾燥質量 700.00 kg
総質量 730.00 kg
長さ 0.30 m
直径 4.10 m
スパン 29.00 m
形状 Box + pan
製造者 SPXS
バスタイプ Starlink V2M
フェーズステータス In Orbit
所有者/国 SPXS/US

Most Searched